Weather History for Pascagoula, MS

Change the Weather History Date:

Friday, November 30, 2012

  Actual Average Record
Temperature  
Mean Temperature 58 °F -  
Max Temperature 73 °F 65 °F 79 °F (1975)
Min Temperature 44 °F 45 °F 26 °F (1959)
Degree Days  
Heating Degree Days 6    
Growing Degree Days 8 (Base 50)    
Moisture  
Dew Point 48 °F    
Average Humidity 88    
Maximum Humidity 100    
Minimum Humidity 53    
Precipitation  
Precipitation 0.00 in - - ()
Sea Level Pressure  
Sea Level Pressure 30.25 in    
Wind  
Wind Speed 2 mph (NE)    
Max Wind Speed 7 mph    
Max Gust Speed -    
Visibility 4 miles    
Events Fog    
Averages and records for this station are not official NWS values.
T = Trace of Precipitation, MM = Missing Value Source: NWS Daily Summary

Daily Weather History Graph

Daily Weather History Graph

Search for Another Location

Airport:

Trip Planner

Search our weather history database for the weather conditions in past years. The results will help you decide how hot, cold, wet, or windy it might be!

Date:

Astronomy

Nov. 30, 2012 Rise Set
Actual Time 6:32 AM CST 4:52 PM CST
Civil Twilight 6:06 AM CST 5:19 PM CST
Nautical Twilight 5:37 AM CST 5:48 PM CST
Astronomical Twilight 5:08 AM CST 6:17 PM CST
Moon 6:46 PM CST (11/30) 8:05 AM CST (11/30)
Length of Visible Light 11h 12m
Length of Day
10h 19m
Waning Gibbous, 96% of the Moon is Illuminated
Nov 30
Waning Gibbous
Dec 6
Last Quarter
Dec 13
New
Dec 19
First Quarter
Dec 28
Full

Hourly Weather History & Observations

Time (CST) Temp. Windchill Dew Point Humidity Pressure Visibility Wind Dir Wind Speed Gust Speed Precip Events Conditions
12:53 AM 45.0 °F 43.5 °F 43.0 °F 93% 30.29 in 8.0 mi North 3.5 mph - N/A   Clear
1:53 AM 45.0 °F - 43.0 °F 93% 30.28 in 7.0 mi Calm Calm - N/A   Clear
2:53 AM 45.0 °F 43.5 °F 43.0 °F 93% 30.27 in 7.0 mi NNE 3.5 mph - N/A   Clear
3:53 AM 44.1 °F 42.5 °F 42.1 °F 93% 30.27 in 7.0 mi NNE 3.5 mph - N/A   Clear
4:53 AM 45.0 °F 43.5 °F 43.0 °F 93% 30.27 in 7.0 mi North 3.5 mph - N/A   Clear
5:53 AM 45.0 °F 43.5 °F 43.0 °F 93% 30.27 in 6.0 mi North 3.5 mph - N/A   Scattered Clouds
6:53 AM 45.0 °F - 43.0 °F 93% 30.28 in 4.0 mi Calm Calm - N/A   Clear
7:53 AM 53.1 °F - 48.0 °F 83% 30.29 in 9.0 mi NE 3.5 mph - N/A   Partly Cloudy
8:53 AM 60.1 °F - 52.0 °F 75% 30.30 in 10.0 mi ENE 3.5 mph - N/A   Clear
9:53 AM 68.0 °F - 55.0 °F 63% 30.30 in - Calm Calm - N/A   Clear
10:53 AM 72.0 °F - 57.0 °F 59% 30.29 in 10.0 mi East 4.6 mph - N/A   Clear
11:53 AM - - - N/A% 30.26 in 10.0 mi North - - N/A   Partly Cloudy
12:53 PM 72.0 °F - 54.0 °F 53% 30.22 in 10.0 mi Calm Calm - N/A   Overcast
1:53 PM 73.0 °F - 55.9 °F 55% 30.21 in 10.0 mi SSE 6.9 mph - N/A   Overcast
2:53 PM 72.0 °F - 55.0 °F 55% 30.20 in 10.0 mi Variable 4.6 mph - N/A   Clear
3:53 PM 71.1 °F - 54.0 °F 55% 30.20 in 10.0 mi Calm Calm - N/A   Clear
4:53 PM 64.0 °F - 55.0 °F 73% 30.21 in 10.0 mi Calm Calm - N/A   Clear
6:53 PM 52.0 °F - 51.1 °F 97% 30.24 in 5.0 mi Calm Calm - N/A   Clear
7:00 PM 53.6 °F - 53.6 °F 100% 30.23 in 1.8 mi Calm Calm - N/A   Clear
7:27 PM 51.8 °F - 50.0 °F 94% 30.24 in 0.8 mi Calm Calm - N/A   Clear
7:32 PM 51.8 °F - 50.0 °F 94% 30.24 in 2.0 mi Calm Calm - N/A   Clear
7:39 PM 51.8 °F - 50.0 °F 94% 30.24 in 1.0 mi Calm Calm - N/A   Mist
7:43 PM 51.8 °F - 50.0 °F 94% 30.24 in 0.2 mi Calm Calm - N/A Fog Fog
8:01 PM 50.0 °F - 48.2 °F 94% 30.24 in 0.2 mi Calm Calm - N/A Fog Fog
8:17 PM 48.2 °F - 48.2 °F 100% 30.24 in 1.0 mi Calm Calm - N/A   Mist
8:31 PM 50.0 °F - 48.2 °F 94% 30.24 in 0.5 mi Calm Calm - N/A Fog Fog
8:36 PM 50.0 °F - 48.2 °F 94% 30.24 in 1.0 mi Calm Calm - N/A   Clear
8:40 PM 50.0 °F - 48.2 °F 94% 30.24 in 3.0 mi Calm Calm - N/A   Clear
8:48 PM 48.2 °F - 48.2 °F 100% 30.24 in 1.8 mi Calm Calm - N/A   Clear
8:58 PM 51.8 °F - 48.2 °F 88% 30.24 in 3.0 mi Calm Calm - N/A   Clear
9:06 PM 50.0 °F - 48.2 °F 94% 30.24 in 1.5 mi Calm Calm - N/A   Clear
9:15 PM 51.8 °F - 48.2 °F 88% 30.23 in 0.5 mi Calm Calm - N/A Fog Fog
9:24 PM 48.2 °F - 46.4 °F 93% 30.23 in 0.2 mi Calm Calm - N/A Fog Fog
10:14 PM 46.4 °F - 46.4 °F 100% 30.23 in 0.8 mi Calm Calm - N/A   Mist
10:21 PM 46.4 °F - 44.6 °F 93% 30.23 in 1.0 mi Calm Calm - N/A   Mist
10:25 PM 46.4 °F - 46.4 °F 100% 30.23 in 0.2 mi Calm Calm - N/A Fog Fog
10:53 PM 48.0 °F - 45.0 °F 89% 30.24 in 0.2 mi Calm Calm - N/A Fog Fog
11:04 PM 46.4 °F - 46.4 °F 100% 30.23 in 0.2 mi Calm Calm - N/A Fog Fog
11:12 PM 46.4 °F - 46.4 °F 100% 30.23 in 0.2 mi Calm Calm - N/A Fog Fog
11:22 PM 46.4 °F - 46.4 °F 100% 30.23 in 0.2 mi Calm Calm - N/A Fog Fog
11:30 PM 48.2 °F - 46.4 °F 93% 30.23 in 0.5 mi Calm Calm - N/A Fog Fog
11:39 PM 46.4 °F - 44.6 °F 93% 30.23 in 0.2 mi Calm Calm - N/A Fog Fog